Regional Weather Roundup
Issued by NWS

Home | Current Version | Previous Version | Text Only | Print | Product List | Glossary On
Versions: 1 2 3 4 5 6 7 8 9 10 11 12 13 14 15 16 17 18 19 20 21 22 23 24 25 26 27
000
ASUS45 KBOI 210210
RWRID
WEATHER ROUNDUP FOR IDAHO
NATIONAL WEATHER SERVICE BOISE ID
800 PM MDT SUN APR 20 2014

NOTE: "FAIR" INDICATES FEW OR NO CLOUDS BELOW 12000 FEET
WITH NO SIGNIFICANT WEATHER AND/OR OBSTRUCTIONS TO VISIBILITY

IDZ012-014-210300-
SOUTHWEST IDAHO


CITY           SKY/WX    TMP DP  RH WIND       PRES   REMARKS
BOISE          PTCLDY    60  19  20 N9        30.20S
CALDWELL       PTCLDY    61  21  21 NE9       30.22S
MOUNTAIN HOME  CLEAR     61  17  17 N13       30.19S
$$

IDZ016-017-210300-
SOUTHCENTRAL IDAHO


CITY           SKY/WX    TMP DP  RH WIND       PRES   REMARKS
BURLEY         CLEAR     54  20  26 W9        30.18R
JEROME         CLEAR     56  15  20 SW15      30.19S
TWIN FALLS     CLEAR     56  17  21 W12       30.20R
$$

IDZ019>023-210300-
SOUTHEAST IDAHO


CITY           SKY/WX    TMP DP  RH WIND       PRES   REMARKS
IDAHO FALLS    PTCLDY    57  15  19 S13       30.17R
POCATELLO      CLEAR     56  14  19 SW14      30.19R
REXBURG        CLEAR     56  14  19 S10       30.15S
$$

IDZ006-010-011-018-031-032-210300-
CENTRAL IDAHO MOUNTAINS


CITY           SKY/WX    TMP DP  RH WIND       PRES   REMARKS
MCCALL         CLEAR     51  20  29 NW6       30.23R
HAILEY         PTCLDY    55  25  30 E13       30.16R
STANLEY          N/A     47  16  29 CALM      30.24S
SALMON         CLEAR     55  19  24 W5        30.16S
CHALLIS        CLEAR     57   5  12 W14       30.16R
$$

IDZ002-004-006-007-026-210300-
NORTHERN IDAHO


CITY           SKY/WX    TMP DP  RH WIND       PRES   REMARKS
LEWISTON       CLEAR     62  24  23 E6        30.18F
LOWELL           N/A     52  38  58 N3        30.22S
COEUR D`ALENE  MOCLDY    54  28  37 S6        30.22F
MULLAN PASS    PTCLDY    37  20  50 SW5       30.23F WCI  33
$$



USA.gov is the U.S. government's official web portal to all federal, state and local government web resources and services.